Atwater, CA

3:37 PM PDT on May 24, 2017 (GMT -0700)
Castle

Weather History for KMER - March, 2014

Change the Weather History Date:

Friday, March 21, 2014

  Actual Average (KMCE) Record (KMCE)
Temperature  
Mean Temperature 63 °F -  
Max Temperature 78 °F 69 °F 79 °F (2004)
Min Temperature 48 °F 42 °F 33 °F (2000)
Degree Days  
Heating Degree Days 2    
Growing Degree Days 13 (Base 50)    
Moisture  
Dew Point 46 °F    
Average Humidity 68    
Maximum Humidity 94    
Minimum Humidity 23    
Precipitation  
Precipitation 0.00 in - - ()
Sea Level Pressure  
Sea Level Pressure 29.91 in    
Wind  
Wind Speed 3 mph (North)    
Max Wind Speed 10 mph    
Max Gust Speed -    
Visibility 10 miles    
Events      
Averages and records for this station are not official NWS values.
T = Trace of Precipitation, MM = Missing Value Source: NWS Daily Summary

Daily Weather History Graph

Daily Weather History Graph

Search for Another Location

Airport or City:

Trip Planner

Search our weather history database for the weather conditions in past years. The results will help you decide how hot, cold, wet, or windy it might be!

Date:

Astronomy

Mar. 21, 2014 Rise Set
Actual Time 7:04 AM PDT 7:15 PM PDT
Civil Twilight 6:38 AM PDT 7:41 PM PDT
Nautical Twilight 6:07 AM PDT 8:11 PM PDT
Astronomical Twilight 5:36 AM PDT 8:42 PM PDT
Moon No Moon Rise 10:05 AM PDT (3/21)
Length of Visible Light 13h 03m
Length of Day
12h 11m
Waning Gibbous, 74% of the Moon is Illuminated
Mar 21
Waning Gibbous
Mar 23
Last Quarter
Mar 30
New
Apr 7
First Quarter
Apr 15
Full

Hourly Weather History & Observations

Time (PDT) Temp. Dew Point Humidity Pressure Visibility Wind Dir Wind Speed Gust Speed Precip Events Conditions
12:15 AM 55.4 °F 48.2 °F 77% 29.92 in 10.0 mi Calm Calm - N/A   Clear
12:35 AM 55.4 °F 48.2 °F 77% 29.92 in 10.0 mi North - - N/A   Clear
12:55 AM 53.6 °F 48.2 °F 82% 29.92 in 10.0 mi Calm Calm - N/A   Clear
1:15 AM 55.4 °F 48.2 °F 77% 29.92 in 10.0 mi Calm Calm - N/A   Clear
1:35 AM 55.4 °F 46.4 °F 72% 29.92 in 10.0 mi Calm Calm - N/A   Clear
1:55 AM 55.4 °F 48.2 °F 77% 29.93 in 10.0 mi North - - N/A   Clear
2:15 AM 53.6 °F 48.2 °F 82% 29.92 in 10.0 mi North - - N/A   Clear
2:35 AM 53.6 °F 48.2 °F 82% 29.92 in 10.0 mi North - - N/A   Clear
2:55 AM 53.6 °F 46.4 °F 77% 29.91 in 10.0 mi Calm Calm - N/A   Clear
3:15 AM 51.8 °F 50.0 °F 94% 29.91 in 10.0 mi Calm Calm - N/A   Clear
3:35 AM 51.8 °F 50.0 °F 94% 29.91 in 10.0 mi NE 4.6 mph - N/A   Clear
3:55 AM 51.8 °F 50.0 °F 94% 29.90 in 10.0 mi Calm Calm - N/A   Clear
4:15 AM 50.0 °F 48.2 °F 94% 29.90 in 10.0 mi NE 4.6 mph - N/A   Clear
4:35 AM 48.2 °F 46.4 °F 93% 29.90 in 10.0 mi NNE 4.6 mph - N/A   Clear
4:55 AM 48.2 °F 46.4 °F 93% 29.90 in 10.0 mi NNE 4.6 mph - N/A   Clear
5:15 AM 48.2 °F 46.4 °F 93% 29.90 in 10.0 mi NNE 5.8 mph - N/A   Clear
5:35 AM 48.2 °F 46.4 °F 93% 29.90 in 10.0 mi North - - N/A   Clear
5:55 AM 50.0 °F 42.8 °F 76% 29.90 in 10.0 mi Calm Calm - N/A   Clear
6:45 AM 48.2 °F 44.6 °F 87% 29.92 in 10.0 mi Calm Calm - N/A   Clear
7:45 AM 48.2 °F 46.4 °F 93% 29.93 in 10.0 mi Calm Calm - N/A   Clear
8:50 AM 55.4 °F 46.4 °F 72% 29.94 in 10.0 mi Variable 5.8 mph - N/A   Clear
9:45 AM 60.8 °F 42.8 °F 52% 29.95 in 10.0 mi North 6.9 mph - N/A   Clear
10:45 AM 66.2 °F 41.0 °F 40% 29.96 in 10.0 mi North 5.8 mph - N/A   Clear
11:45 AM 69.8 °F 41.0 °F 35% 29.96 in 10.0 mi NNW 6.9 mph - N/A   Clear
12:45 PM 73.4 °F 42.8 °F 33% 29.94 in 10.0 mi North 8.1 mph - N/A   Clear
1:45 PM 75.2 °F 42.8 °F 31% 29.93 in 10.0 mi North 9.2 mph - N/A   Clear
2:45 PM 77.0 °F 44.6 °F 32% 29.91 in 10.0 mi North 4.6 mph - N/A   Clear
3:45 PM 78.8 °F 39.2 °F 24% 29.89 in 10.0 mi NNW 10.4 mph - N/A   Clear
4:45 PM 78.8 °F 37.4 °F 23% 29.88 in 10.0 mi NNW 8.1 mph - N/A   Clear
5:45 PM 75.2 °F 41.0 °F 29% 29.87 in 10.0 mi NNW 9.2 mph - N/A   Clear
6:45 PM 69.8 °F 44.6 °F 40% 29.88 in 10.0 mi North 6.9 mph - N/A   Clear
7:45 PM 62.6 °F 42.8 °F 48% 29.88 in 10.0 mi North 6.9 mph - N/A   Clear
8:15 PM 62.6 °F 44.6 °F 52% 29.89 in 10.0 mi Calm Calm - N/A   Clear
8:35 PM 62.6 °F 44.6 °F 52% 29.90 in 10.0 mi Calm Calm - N/A   Clear
8:45 PM 60.8 °F 44.6 °F 55% 29.90 in 10.0 mi NNW 9.2 mph - N/A   Clear
8:55 PM 60.8 °F 44.6 °F 55% 29.90 in 10.0 mi Calm Calm - N/A   Clear
9:15 PM 57.2 °F 46.4 °F 67% 29.91 in 10.0 mi North 9.2 mph - N/A   Clear
9:35 PM 57.2 °F 46.4 °F 67% 29.92 in 10.0 mi North 8.1 mph - N/A   Clear
9:55 PM 57.2 °F 48.2 °F 72% 29.92 in 10.0 mi NNE 8.1 mph - N/A   Clear
10:15 PM 59.0 °F 48.2 °F 67% 29.92 in 10.0 mi NNE 8.1 mph - N/A   Clear
10:35 PM 59.0 °F 48.2 °F 67% 29.93 in 10.0 mi NNE 6.9 mph - N/A   Clear
10:55 PM 57.2 °F 48.2 °F 72% 29.93 in 10.0 mi NNE 8.1 mph - N/A   Clear
11:15 PM 57.2 °F 48.2 °F 72% 29.93 in 10.0 mi NE 8.1 mph - N/A   Clear
11:35 PM 55.4 °F 50.0 °F 82% 29.93 in 10.0 mi NE 6.9 mph - N/A   Clear
11:55 PM 53.6 °F 51.8 °F 94% 29.94 in 10.0 mi Calm Calm - N/A   Clear